Weather Roundup
Issued by NWS Chicago, IL

Home | Current Version | Previous Version | Graphics & Text | Print | Product List | Glossary On
Versions: 1 2 3 4 5 6 7 8 9 10 11 12 13 14 15 16 17 18 19 20 21 22 23 24 25 26 27 28 29 30 31 32 33 34 35 36 37 38 39 40 41 42 43 44 45 46 47 48 49 50
000
NZUS59 KLOT 061758
HRRLOT

CHICAGO AREA WEATHER ROUNDUP
NATIONAL WEATHER SERVICE CHICAGO/ROMEOVILLE IL
1200 PM CST FRI MAR 06 2015

NOTE: "FAIR" INDICATES FEW OR NO CLOUDS BELOW 12,000 FEET WITH NO
SIGNIFICANT WEATHER AND/OR OBSTRUCTIONS TO VISIBILITY.

* THESE STATIONS ARE NOT UNDER NWS QUALITY CONTROL. THEY ALSO MAY NOT
  REPORT WEATHER SUCH AS PRECIPITATION OR FOG.

ILZ005-006-012>014-019>023-061900-
NORTHEAST ILLINOIS

CITY           SKY/WX    TMP DP  RH WIND       PRES   REMARKS
OHARE            N/A     21   9  59 S20G26    30.30F WCI   6
6HR MIN TEMP:   5; 6HR MAX TEMP:  21;

MIDWAY           N/A     21   8  57 S17G23    30.33F WCI   7
AURORA         CLOUDY    21   9  59 S20       30.30F WCI   6
6HR MIN TEMP:   0; 6HR MAX TEMP:  21;

WAUKEGAN       NOT AVBL
DUPAGE AIRPORT   N/A     20   9  62 S18       30.29F WCI   5
6HR MIN TEMP:   2; 6HR MAX TEMP:  20;

WHEELING         N/A     24   7  48 S21G26    30.31F WCI   9
6HR MIN TEMP:   6; 6HR MAX TEMP:  24;

NORTHERLY IS     N/A     20   5  52 S21         N/A  WCI   4
$$

WIZ051-052-058>065-066-070>072-061900-
SOUTHEAST WISCONSIN

CITY           SKY/WX    TMP DP  RH WIND       PRES   REMARKS
MILWAUKEE        N/A     23   6  48 SW24G31   30.24F WCI   7
6HR MIN TEMP:   0; 6HR MAX TEMP:  23;

KENOSHA*       PTSUNNY   24   8  50 SW18G26   30.26F WCI  10
RACINE*          N/A     23   7  50 SW21G28   30.27F WCI   8
WAUKESHA       SUNNY     21   7  53 S10G20    30.23F WCI  10
$$

INZ001>003-010>013-019-020-061900-
NORTHWEST INDIANA

CITY           SKY/WX    TMP DP  RH WIND       PRES   REMARKS
GARY*          MOSUNNY   21   3  45 MISG      30.38F
MICHIGAN CITY* NOT AVBL
RENSSELAER*    NOT AVBL
$$

LMZ740>746-061900-
SOUTHERN LAKE MICHIGAN

STATION/POSITION TIME  SKY/WX   TEMP WIND        PRES    VSBY
                                AIR  DIR/SP/G
                 (UTC)          (F)  (DEG/KT/KT) (MB)    (MI)
HARRISON CRIB    1700            16  190/ 25/ 31   N/A
BURNHAM HARBOR   1700            19  210/ 12/ 19   N/A
CALUMET HARBOR   1700            18  180/ 14/ 19 1026.8F
BURNS HARBOR     NOT AVBL
MICHIGAN CITY    1700            15  170/ 17/ 23   N/A
$$

ABBREVIATIONS USED IN REMARKS
   TC - TEMPERATURE IN CELSIUS
  WCI - WIND CHILL INDEX
   HX - HEAT INDEX
  VSB - VISIBILITY
$$



USA.gov is the U.S. government's official web portal to all federal, state and local government web resources and services.